K5HAS Weather Reports


time (UTC)temp
C
wind
direction
speed
KPH
gust
KPH
rain 1hr
cm
rain 24hr
cm
rain mn
cm
humidity
%
barometer
mb
20260506222157 28 153 14.5 25.7 0.00 0.00 0.00 84 1006.4
20260506221658 28 155 14.5 27.4 0.00 0.00 0.00 84 1006.4
20260506221155 28 141 17.7 27.4 0.00 0.00 0.00 84 1006.5
20260506220649 28 143 16.1 27.4 0.00 0.00 0.00 84 1006.5
20260506220151 28 123 16.1 25.7 0.00 0.00 0.00 84 1006.5
20260506215648 28 151 17.7 29.0 0.00 0.00 0.00 84 1006.5
20260506215146 28 90 16.1 29.0 0.00 0.00 0.00 84 1006.5
20260506214646 28 90 16.1 29.0 0.00 0.00 0.00 84 1006.5
20260506214148 28 139 17.7 29.0 0.00 0.00 0.00 84 1006.6
20260506213647 28 161 16.1 29.0 0.00 0.00 0.00 84 1006.6
20260506213146 28 141 16.1 27.4 0.00 0.00 0.00 84 1006.6
20260506212648 29 143 16.1 27.4 0.00 0.00 0.00 84 1006.4
20260506212146 29 166 14.5 24.1 0.00 0.00 0.00 84 1006.4
20260506211647 29 159 12.9 22.5 0.00 0.00 0.00 84 1006.4
20260506211409 29 154 12.9 20.9 0.00 0.00 0.00 84 1006.5
20260506210916 29 90 14.5 22.5 0.00 0.00 0.00 84 1006.5
20260506210145 29 142 12.9 22.5 0.00 0.00 0.00 84 1006.5
20260506205645 29 90 8.0 20.9 0.00 0.00 0.00 84 1006.6
20260506205143 29 176 4.8 12.9 0.00 0.00 0.00 84 1006.6
20260506204916 29 213 4.8 8.0 0.00 0.00 0.00 84 1006.6
20260506204147 29 234 4.8 8.0 0.00 0.00 0.00 84 1006.6
20260506203913 30 226 4.8 8.0 0.00 0.00 0.00 85 1006.6
20260506203405 30 245 4.8 8.0 0.00 0.00 0.00 85 1006.6
20260506202643 30 247 4.8 12.9 0.00 0.00 0.00 85 1006.6
20260506202144 30 246 6.4 12.9 0.00 0.00 0.00 85 1006.6
20260506201642 30 220 8.0 14.5 0.00 0.00 0.00 85 1006.6
20260506201143 30 202 9.7 14.5 0.00 0.00 0.00 85 1006.8
20260506200642 29 207 8.0 22.5 0.00 0.00 0.00 85 1006.8
20260506200144 29 213 9.7 22.5 0.00 0.00 0.00 86 1006.8
20260506195642 29 160 11.3 22.5 0.00 0.00 0.00 86 1007.2
20260506194633 29 128 14.5 24.1 0.00 0.00 0.00 86 1007.2
20260506194124 29 199 14.5 24.1 0.00 0.00 0.00 86 1007.3
20260506193613 29 90 16.1 29.0 0.00 0.00 0.00 86 1007.3
20260506193108 29 181 17.7 29.0 0.00 0.00 0.00 87 1007.3
20260506192557 28 90 16.1 27.4 0.00 0.00 0.00 87 1007.6
20260506191542 28 90 16.1 24.1 0.00 0.00 0.00 87 1007.6
20260506191031 28 90 14.5 24.1 0.00 0.00 0.00 87 1007.7
20260506190739 28 175 16.1 25.7 0.00 0.00 0.00 87 1007.7
20260506190011 28 90 16.1 25.7 0.00 0.00 0.00 87 1007.7
20260506185502 28 163 16.1 27.4 0.00 0.00 0.00 88 1007.9
20260506185208 28 170 14.5 27.4 0.00 0.00 0.00 88 1007.9
20260506184439 27 153 14.5 25.7 0.00 0.00 0.00 88 1008.2
20260506183931 27 90 14.5 25.7 0.00 0.00 0.00 88 1008.2
20260506183423 27 121 14.5 25.7 0.00 0.00 0.00 88 1008.2
20260506182922 27 131 14.5 25.7 0.00 0.00 0.00 88 1008.3
20260506182423 27 149 12.9 20.9 0.00 0.00 0.00 88 1008.3
20260506181924 27 90 12.9 22.5 0.00 0.00 0.00 88 1008.3
20260506181423 27 90 12.9 22.5 0.00 0.00 0.00 88 1008.4
20260506180923 26 153 12.9 20.9 0.00 0.00 0.00 88 1008.4
20260506180423 26 150 12.9 20.9 0.00 0.00 0.00 88 1008.4
20260506180153 26 147 14.5 20.9 0.00 0.00 0.00 88 1008.6
20260506175424 26 153 12.9 20.9 0.00 0.00 0.00 88 1008.6
20260506174928 26 149 12.9 20.9 0.00 0.00 0.00 88 1008.6
20260506174423 26 168 12.9 20.9 0.00 0.00 0.00 88 1008.6
20260506173917 26 137 11.3 20.9 0.00 0.00 0.00 89 1008.6
20260506173412 26 132 9.7 19.3 0.00 0.00 0.00 89 1008.6
20260506172907 26 90 9.7 17.7 0.00 0.00 0.00 89 1008.5
20260506172412 26 149 9.7 17.7 0.00 0.00 0.00 89 1008.5
20260506171906 26 157 8.0 17.7 0.00 0.00 0.00 89 1008.5
20260506171412 26 90 11.3 17.7 0.00 0.00 0.00 89 1008.4
20260506170907 26 162 11.3 17.7 0.00 0.00 0.00 89 1008.4
20260506170406 26 129 14.5 0.0 0.00 0.00 0.00 89 1008.4
20260506165325 26 164 12.9 20.9 0.00 0.00 0.00 89 1008.4
20260506164825 26 145 14.5 25.7 0.00 0.00 0.00 89 1008.4
20260506163824 26 165 12.9 22.5 0.00 0.00 0.00 89 1008.4
20260506163323 26 141 12.9 22.5 0.00 0.00 0.00 89 1008.4
20260506162813 26 90 12.9 24.1 0.00 0.00 0.00 89 1008.3
20260506162307 26 156 14.5 24.1 0.00 0.00 0.00 90 1008.3
20260506161757 26 123 14.5 24.1 0.00 0.00 0.00 90 1008.3
20260506161243 26 90 11.3 22.5 0.00 0.00 0.00 90 1008.1
20260506160727 26 90 11.3 24.1 0.00 0.00 0.00 90 1008.1
20260506160219 26 121 12.9 24.1 0.00 0.00 0.00 90 1008.1
20260506155709 26 139 14.5 25.7 0.00 0.00 0.00 90 1007.8
20260506155159 26 160 14.5 25.7 0.00 0.00 0.00 90 1007.8
20260506154652 26 141 14.5 24.1 0.00 0.00 0.00 90 1007.8
20260506154142 25 121 14.5 24.1 0.00 0.00 0.00 90 1007.7
20260506153629 25 95 12.9 22.5 0.00 0.00 0.00 90 1007.7
20260506153343 25 118 11.3 17.7 0.00 0.00 0.00 90 1007.7
20260506152609 25 90 12.9 19.3 0.00 0.00 0.00 90 1007.6
20260506152055 25 90 11.3 20.9 0.00 0.00 0.00 90 1007.6
20260506151544 25 109 11.3 20.9 0.00 0.00 0.00 90 1007.6
20260506151043 25 133 9.7 19.3 0.00 0.00 0.00 90 1007.6
20260506150532 25 95 8.0 14.5 0.00 0.00 0.00 90 1007.6
20260506150023 25 147 9.7 17.7 0.00 0.00 0.00 90 1007.6
20260506145735 25 143 9.7 17.7 0.00 0.00 0.00 90 1007.4
20260506145231 25 126 4.8 16.1 0.00 0.00 0.00 90 1007.4
20260506144457 25 133 4.8 9.7 0.00 0.00 0.00 90 1007.2
20260506143950 25 150 4.8 11.3 0.00 0.00 0.00 90 1007.2
20260506143445 25 117 4.8 11.3 0.00 0.00 0.00 90 1007.2
20260506142939 25 128 8.0 12.9 0.00 0.00 0.00 90 1007.2
20260506142425 25 111 9.7 14.5 0.00 0.00 0.00 90 1007.2
20260506141914 25 116 9.7 14.5 0.00 0.00 0.00 90 1007.2
20260506141629 25 118 8.0 12.9 0.00 0.00 0.00 90 1007.2
20260506140857 25 110 9.7 12.9 0.00 0.00 0.00 90 1007.2
20260506140346 25 104 9.7 12.9 0.00 0.00 0.00 90 1007.2
20260506135840 25 111 8.0 12.9 0.00 0.00 0.00 89 1007.2
20260506135330 25 117 6.4 12.9 0.00 0.00 0.00 89 1007.2
20260506134828 25 90 8.0 12.9 0.00 0.00 0.00 89 1007.2
20260506134330 25 90 8.0 12.9 0.00 0.00 0.00 89 1007.2
20260506133825 25 95 8.0 12.9 0.00 0.00 0.00 89 1007.2
20260506133324 25 106 6.4 12.9 0.00 0.00 0.00 89 1007.2
20260506133044 25 90 6.4 11.3 0.00 0.00 0.00 89 1007.2
20260506132323 25 99 6.4 11.3 0.00 0.00 0.00 89 1007.2
20260506131825 25 85 8.0 11.3 0.00 0.00 0.00 89 1007.2
20260506131324 25 107 6.4 11.3 0.00 0.00 0.00 89 1007.2
20260506130823 24 95 4.8 9.7 0.00 0.00 0.00 89 1007.2
20260506130322 24 85 4.8 9.7 0.00 0.00 0.00 89 1007.2
20260506125806 24 95 4.8 8.0 0.00 0.00 0.00 89 1007.2
20260506125255 24 95 4.8 8.0 0.00 0.00 0.00 89 1007.2
20260506124742 24 99 4.8 8.0 0.00 0.00 0.00 89 1007.2
20260506124226 24 100 3.2 8.0 0.00 0.00 0.00 89 1007.2
20260506123714 24 125 1.6 6.4 0.00 0.00 0.00 89 1007.2
20260506123202 24 127 3.2 6.4 0.00 0.00 0.00 89 1007.2
20260506122905 24 127 4.8 6.4 0.00 0.00 0.00 89 1007.1
20260506122134 24 138 4.8 6.4 0.00 0.00 0.00 89 1007.1
20260506121624 24 103 4.8 8.0 0.00 0.00 0.00 89 1007.1
20260506121113 24 101 6.4 8.0 0.00 0.00 0.00 89 1006.8
20260506120608 24 104 6.4 11.3 0.00 0.00 0.00 89 1006.8
20260506120107 24 105 4.8 11.3 0.00 0.00 0.00 89 1006.8
20260506115607 24 85 6.4 11.3 0.00 0.00 0.00 89 1006.7
20260506115107 24 105 8.0 12.9 0.00 0.00 0.00 89 1006.7
20260506114607 24 105 8.0 12.9 0.00 0.00 0.00 89 1006.7
20260506114106 24 118 6.4 12.9 0.00 0.00 0.00 89 1006.7
20260506113607 24 131 6.4 12.9 0.00 0.00 0.00 89 1006.7
20260506113108 24 116 6.4 14.5 0.00 0.00 0.00 89 1006.7
20260506112605 24 154 8.0 14.5 0.00 0.00 0.00 89 1006.7
20260506112102 24 142 6.4 12.9 0.00 0.00 0.00 89 1006.7
20260506111602 24 118 6.4 12.9 0.00 0.00 0.00 89 1006.7
20260506111100 24 126 6.4 12.9 0.00 0.00 0.00 89 1006.6
20260506110558 24 122 8.0 12.9 0.00 0.00 0.00 89 1006.6
20260506110044 24 116 6.4 12.9 0.00 0.00 0.00 89 1006.6
20260506105541 24 110 4.8 11.3 0.00 0.00 0.00 89 1006.6
20260506105036 24 139 6.4 9.7 0.00 0.00 0.00 89 1006.6
20260506104537 24 130 6.4 11.3 0.00 0.00 0.00 89 1006.6
20260506104033 24 117 6.4 11.3 0.00 0.00 0.00 89 1006.6
20260506103537 24 130 6.4 11.3 0.00 0.00 0.00 89 1006.6
20260506103034 24 103 6.4 12.9 0.00 0.00 0.00 89 1006.6
20260506102758 24 132 6.4 12.9 0.00 0.00 0.00 89 1006.4
20260506102032 24 121 8.0 12.9 0.00 0.00 0.00 89 1006.4
20260506101032 24 117 8.0 12.9 0.00 0.00 0.00 89 1006.4
20260506100536 24 120 6.4 11.3 0.00 0.00 0.00 89 1006.4
20260506100034 24 109 6.4 11.3 0.00 0.00 0.00 89 1006.4
20260506095534 24 116 8.0 11.3 0.00 0.00 0.00 89 1006.3
20260506095245 24 122 6.4 11.3 0.00 0.00 0.00 89 1006.3
20260506094520 24 126 6.4 11.3 0.00 0.00 0.00 89 1006.3
20260506094010 24 118 6.4 11.3 0.00 0.00 0.00 89 1006.2
20260506093719 24 121 6.4 11.3 0.00 0.00 0.00 89 1006.2
20260506093223 24 130 6.4 11.3 0.00 0.00 0.00 89 1006.4
20260506092443 24 141 6.4 11.3 0.00 0.00 0.00 89 1006.4
20260506091937 24 128 6.4 14.5 0.00 0.00 0.00 89 1006.4
20260506091423 24 120 6.4 14.5 0.00 0.00 0.00 89 1006.2
20260506090919 24 122 8.0 14.5 0.00 0.00 0.00 89 1006.2
20260506085918 24 128 6.4 17.7 0.00 0.00 0.00 89 1006.3
20260506085640 24 126 4.8 16.1 0.00 0.00 0.00 89 1006.3
20260506084917 24 134 6.4 12.9 0.00 0.00 0.00 89 1006.3
20260506084417 24 134 6.4 14.5 0.00 0.00 0.00 89 1006.2
20260506083918 24 144 8.0 14.5 0.00 0.00 0.00 89 1006.2
20260506083416 24 134 8.0 14.5 0.00 0.00 0.00 89 1006.2
20260506082916 24 147 6.4 12.9 0.00 0.00 0.00 88 1006.2
20260506082641 24 135 8.0 14.5 0.00 0.00 0.00 89 1006.2
20260506081916 24 154 8.0 14.5 0.00 0.00 0.00 88 1006.2
20260506081416 24 153 8.0 14.5 0.00 0.00 0.00 88 1006.5
20260506080916 24 90 6.4 14.5 0.00 0.00 0.00 88 1006.5
20260506080416 24 141 6.4 14.5 0.00 0.00 0.00 88 1006.5
20260506073333 25 145 6.4 14.5 0.00 0.00 0.00 88 1006.8
20260506072827 25 133 6.4 14.5 0.00 0.00 0.00 88 1007.1
20260506072322 25 146 8.0 12.9 0.00 0.00 0.00 88 1007.1
20260506071822 25 156 8.0 14.5 0.00 0.00 0.00 88 1007.1
20260506071323 25 151 9.7 16.1 0.00 0.00 0.00 88 1007.2
20260506071043 25 90 9.7 16.1 0.00 0.00 0.00 88 1007.2
20260506070318 25 90 9.7 14.5 0.00 0.00 0.00 88 1007.2
20260506062306 25 157 9.7 20.9 0.00 0.00 0.00 88 1007.7
20260506061756 25 169 9.7 20.9 0.00 0.00 0.00 88 1007.7
20260506061250 25 90 11.3 19.3 0.00 0.00 0.00 88 1007.7
20260506060741 25 170 9.7 19.3 0.00 0.00 0.00 88 1007.7
20260506060231 25 164 11.3 19.3 0.00 0.00 0.00 88 1007.7
20260506051109 25 170 14.5 22.5 0.00 0.00 0.00 88 1007.2
20260506050558 25 158 14.5 22.5 0.00 0.00 0.00 88 1007.2
20260506045039 25 90 16.1 25.7 0.00 0.00 0.00 88 1007.1
20260506044529 25 90 16.1 25.7 0.00 0.00 0.00 88 1007.1
20260506044023 25 117 14.5 29.0 0.00 0.00 0.00 88 1007.0
20260506043517 25 161 14.5 29.0 0.00 0.00 0.00 88 1007.0
20260506043016 25 169 16.1 27.4 0.00 0.00 0.00 87 1007.0
20260506042518 25 158 16.1 27.4 0.00 0.00 0.00 87 1006.8
20260506042016 25 147 17.7 29.0 0.00 0.00 0.00 87 1006.8
20260506041516 25 149 19.3 29.0 0.00 0.00 0.00 87 1006.8
20260506041016 25 90 19.3 29.0 0.00 0.00 0.00 87 1006.9
20260506040516 25 90 17.7 27.4 0.00 0.00 0.00 87 1006.9
20260506040017 25 90 17.7 27.4 0.00 0.00 0.00 87 1006.9
20260506035516 25 90 17.7 32.2 0.00 0.00 0.00 87 1006.7
20260506035018 25 90 17.7 32.2 0.00 0.00 0.00 87 1006.7
20260506034517 25 90 19.3 33.8 0.00 0.00 0.00 87 1006.7
20260506034017 25 151 17.7 33.8 0.00 0.00 0.00 87 1006.7
20260506033515 25 134 17.7 27.4 0.00 0.00 0.00 87 1006.7
20260506033006 25 90 16.1 27.4 0.00 0.00 0.00 87 1006.7
20260506032503 25 148 14.5 25.7 0.00 0.00 0.00 87 1006.7
20260506031949 25 141 12.9 25.7 0.00 0.00 0.00 87 1006.7
20260506031440 25 172 14.5 25.7 0.00 0.00 0.00 87 1006.7
20260506030933 25 166 14.5 25.7 0.00 0.00 0.00 87 1006.7
20260506030429 25 161 12.9 22.5 0.00 0.00 0.00 87 1006.7
20260506025930 25 152 14.5 20.9 0.00 0.00 0.00 87 1006.5
20260506025428 25 172 12.9 24.1 0.00 0.00 0.00 87 1006.5
20260506024934 25 149 11.3 24.1 0.00 0.00 0.00 87 1006.5
20260506024426 25 157 12.9 24.1 0.00 0.00 0.00 87 1006.2
20260506024154 25 155 12.9 24.1 0.00 0.00 0.00 87 1006.2
20260506023424 25 152 14.5 20.9 0.00 0.00 0.00 86 1006.2
20260506022925 25 161 14.5 20.9 0.00 0.00 0.00 86 1006.1
20260506022422 25 90 14.5 25.7 0.00 0.00 0.00 86 1006.1
20260506021922 25 174 14.5 25.7 0.00 0.00 0.00 86 1006.1
20260506021423 25 146 14.5 22.5 0.00 0.00 0.00 86 1005.7
20260506021132 25 171 16.1 22.5 0.00 0.00 0.00 86 1005.7
20260506020355 25 134 16.1 22.5 0.00 0.00 0.00 86 1005.7
20260506015843 25 166 14.5 25.7 0.00 0.00 0.00 86 1005.7
20260506015340 25 132 14.5 25.7 0.00 0.00 0.00 86 1005.7
20260506014840 25 147 16.1 24.1 0.00 0.00 0.00 86 1005.7
20260506014340 25 159 17.7 24.1 0.00 0.00 0.00 86 1005.5
20260506013841 25 159 17.7 25.7 0.00 0.00 0.00 86 1005.5
20260506013342 25 164 16.1 25.7 0.00 0.00 0.00 86 1005.5
20260506012838 25 164 17.7 27.4 0.00 0.00 0.00 86 1005.1
20260506012339 25 177 19.3 29.0 0.00 0.00 0.00 86 1005.1
20260506012102 25 143 19.3 29.0 0.00 0.00 0.00 86 1005.1
20260506011554 25 90 19.3 29.0 0.00 0.00 0.00 85 1005.1
20260506010827 25 90 17.7 29.0 0.00 0.00 0.00 85 1005.1
20260506010325 25 174 17.7 30.6 0.00 0.00 0.00 85 1005.1
20260506010054 25 165 19.3 30.6 0.00 0.00 0.00 85 1005.0
20260506005326 25 184 17.7 30.6 0.00 0.00 0.00 85 1005.0
20260506004818 25 90 17.7 30.6 0.00 0.00 0.00 85 1005.0
20260506004318 25 166 19.3 32.2 0.00 0.00 0.00 85 1004.8
20260506004043 26 90 19.3 33.8 0.00 0.00 0.00 85 1004.8
20260506003315 26 90 17.7 33.8 0.00 0.00 0.00 85 1004.8
20260506002816 26 90 19.3 37.0 0.00 0.00 0.00 85 1004.8
20260506002320 26 157 19.3 37.0 0.00 0.00 0.00 85 1004.8
20260506001816 26 157 19.3 30.6 0.00 0.00 0.00 85 1004.8
20260506001324 26 90 17.7 29.0 0.00 0.00 0.00 85 1004.8
20260506000809 26 171 20.9 30.6 0.00 0.00 0.00 85 1004.8
20260506000258 26 90 20.9 33.8 0.00 0.00 0.00 85 1004.8
20260505235744 26 158 19.3 33.8 0.00 0.00 0.00 84 1004.6
20260505235239 26 143 19.3 37.0 0.00 0.00 0.00 84 1004.6
20260505234733 26 145 20.9 37.0 0.00 0.00 0.00 84 1004.6
20260505234229 26 161 24.1 37.0 0.00 0.00 0.00 84 1004.8
20260505233727 26 157 22.5 37.0 0.00 0.00 0.00 84 1004.8
20260505233225 26 175 19.3 35.4 0.00 0.00 0.00 84 1004.8
20260505232945 26 90 17.7 37.0 0.00 0.00 0.00 84 1004.9
20260505232227 26 155 19.3 37.0 0.00 0.00 0.00 84 1004.9
20260505231726 26 170 19.3 37.0 0.00 0.00 0.00 84 1004.9
20260505231458 26 167 20.9 37.0 0.00 0.00 0.00 84 1004.8
20260505230731 26 144 20.9 33.8 0.00 0.00 0.00 84 1004.8
20260505230225 26 90 20.9 35.4 0.00 0.00 0.00 84 1004.8
20260505225727 26 155 22.5 35.4 0.00 0.00 0.00 84 1005.1
20260505225500 26 148 24.1 35.4 0.00 0.00 0.00 83 1005.1
20260505224942 26 172 24.1 37.0 0.00 0.00 0.00 83 1005.1
20260505223717 26 90 20.9 33.8 0.00 0.00 0.00 83 1005.1
20260505223210 27 130 19.3 33.8 0.00 0.00 0.00 83 1005.1
20260505222659 27 90 19.3 32.2 0.00 0.00 0.00 83 1005.1